Theta_e
317 317 317 317 316 316 316 316 316 315 315 316 316 315 315 315 315 314 314 314 315 315 315 316 318 321 317 305 304 320 331 331 326 315 308 306 304 303 299 301 302 299 301 302 303 303 303
317 316 316 316 316 316 316 316 315 315 315 316 315 315 314 314 314 314 314 314 315 315 316 317 318 320 311 296 309 319 324 324 317 311 308 308 305 306 302 301 300 301 302 301 302 302 302
316 316 316 315 315 315 315 315 315 316 315 316 315 315 314 314 314 314 314 314 315 316 317 318 319 318 306 301 311 319 323 320 315 311 306 309 308 303 302 299 303 301 296 299 299 300 299
315 314 314 314 314 314 314 314 313 313 313 314 314 313 313 313 314 314 314 315 316 317 317 318 319 315 301 308 312 316 317 310 311 311 308 309 308 304 301 303 299 296 297 292 299 301 301
314 314 314 313 313 313 312 313 313 313 313 313 312 312 312 312 313 314 314 315 316 316 317 318 314 309 299 309 303 309 312 306 308 308 308 308 306 301 301 296 293 295 290 292 295 300 299
313 313 313 312 312 312 312 311 311 311 313 312 311 311 311 312 313 313 313 314 314 316 316 314 308 300 303 300 305 307 310 308 304 304 303 302 301 297 296 294 287 291 291 292 292 297 297
313 312 311 311 311 311 311 311 311 310 312 311 310 310 310 311 312 312 311 310 303 304 304 300 302 302 301 304 307 305 307 305 305 301 295 299 293 290 293 296 295 295 293 292 295 298 294
311 311 311 311 311 311 311 311 310 310 311 310 309 310 309 310 311 310 309 302 300 301 293 301 301 301 304 305 298 302 307 300 299 294 298 295 290 296 298 297 295 294 292 292 295 297 295
311 311 311 311 311 310 311 310 310 310 310 309 309 310 310 310 310 307 304 302 309 306 293 297 300 299 300 301 297 298 303 301 297 294 295 292 295 296 295 294 292 291 290 291 291 295 295
310 311 311 312 312 311 311 311 310 310 310 309 309 309 310 309 306 303 301 306 309 307 291 294 295 299 300 300 295 302 304 300 296 292 294 294 297 294 293 291 292 288 294 293 291 289 285
310 310 310 311 310 310 310 311 311 310 310 311 309 308 308 308 303 300 302 308 309 304 283 295 295 304 301 296 296 297 303 299 293 293 293 292 293 291 290 292 294 290 293 292 291 288 288
310 310 310 310 310 310 310 311 310 310 311 310 310 309 309 304 303 304 307 308 305 290 283 291 296 294 294 297 296 297 297 300 298 293 294 292 296 292 292 294 293 294 290 289 289 288 281
310 310 309 309 309 309 309 310 310 310 310 310 309 309 306 303 298 306 308 303 288 282 292 289 291 293 293 292 294 294 293 291 289 285 287 291 291 294 294 290 292 291 288 282 280 280 280
309 308 308 308 308 308 308 309 308 309 309 309 309 308 305 303 306 308 304 294 280 287 288 291 291 290 287 291 292 293 292 290 294 292 288 286 284 292 294 291 290 288 288 284 277 280 283
308 307 308 307 308 307 307 307 307 308 308 308 307 303 301 304 306 306 297 284 284 285 288 288 288 285 286 289 289 290 290 289 292 294 286 285 285 292 293 294 293 290 286 291 285 287 283
307 307 307 307 306 307 306 306 307 307 308 307 301 299 299 304 306 302 290 284 286 290 290 289 282 285 282 285 285 287 287 291 290 294 295 289 283 291 291 292 292 291 292 283 285 277 276
306 306 306 306 306 306 306 306 306 306 306 306 299 291 299 304 305 293 282 285 287 291 291 287 284 283 284 283 285 284 285 289 291 291 293 290 287 285 289 287 286 287 285 287 287 284 278
306 306 305 305 305 305 305 305 306 306 305 302 296 285 300 302 288 290 285 286 290 288 290 287 287 285 283 284 283 283 283 286 291 290 286 290 286 281 284 290 291 288 286 287 281 279 283
306 306 306 306 306 306 305 305 305 305 305 300 291 289 300 298 283 283 286 285 287 286 286 285 283 285 286 282 279 283 284 287 291 289 286 288 282 277 279 284 288 284 286 287 286 283 279
305 305 306 306 307 306 306 306 305 305 304 300 291 284 291 293 292 286 284 283 282 288 286 286 284 285 283 281 283 280 281 285 288 287 290 288 282 279 276 279 283 281 283 285 284 279 279
305 305 306 306 306 306 305 305 305 304 304 299 289 286 289 282 285 285 284 284 281 281 286 287 283 283 282 278 279 279 281 283 286 288 287 285 278 280 280 282 282 282 281 283 282 282 278
305 305 305 305 305 304 305 305 304 304 303 297 287 286 287 285 286 284 284 282 281 283 283 282 281 283 283 280 281 278 281 280 280 285 284 285 277 280 277 281 281 278 279 281 282 282 282
304 303 304 304 304 304 304 304 304 303 302 296 296 294 287 284 284 282 282 282 282 284 285 286 284 283 281 283 286 287 286 285 284 281 281 282 279 277 273 278 278 274 276 278 277 273 274
303 303 304 304 304 304 304 304 303 303 302 300 296 292 283 279 282 282 283 284 283 283 282 285 286 283 287 291 289 287 285 283 283 282 285 281 279 278 273 276 268 271 276 274 269 269 271
304 303 303 303 303 303 303 303 303 302 302 300 298 293 286 280 283 283 284 283 284 286 285 285 286 289 290 287 280 277 278 278 280 282 282 284 279 275 272 272 273 271 268 267 267 265 269
302 302 302 302 302 302 302 302 302 301 302 300 298 298 290 283 283 285 283 284 282 283 283 284 289 289 287 283 279 273 272 275 275 276 281 280 280 277 275 270 267 263 265 269 269 264 268
303 303 303 303 303 302 301 301 301 303 302 300 297 300 292 284 288 287 284 281 286 284 281 284 283 284 286 280 276 274 274 277 273 273 274 275 276 273 274 272 262 262 265 268 265 261 266
302 302 302 301 301 300 299 300 300 300 301 301 297 301 294 285 288 287 282 280 281 281 277 281 281 283 282 278 277 277 276 277 275 267 267 265 264 265 267 270 262 263 265 261 262 266 266
301 301 302 301 300 299 299 299 299 299 300 302 295 300 299 290 285 286 285 284 282 282 279 281 279 279 282 280 280 280 277 277 274 269 265 264 260 261 259 258 262 264 263 265 266 265 265
Wind_Speed
13 14 14 15 16 16 17 18 18 19 20 21 21 22 22 24 25 25 26 27 27 25 23 21 17 13 7 9 16 6 11 12 14 14 17 17 18 18 15 15 19 23 20 17 14 16 17
13 13 14 15 16 17 18 18 18 19 20 21 22 22 24 25 26 27 29 30 30 27 23 20 15 9 8 18 2 8 12 14 12 16 16 17 10 18 10 18 17 8 17 20 17 17 13
13 14 14 15 16 17 18 19 19 20 21 22 22 23 25 27 28 29 30 32 30 27 23 20 15 11 13 20 2 7 10 12 12 13 13 14 16 8 5 12 17 12 15 15 19 20 17
13 13 15 16 17 18 19 20 20 21 22 22 23 24 25 26 28 29 30 32 27 25 18 11 8 12 10 3 4 9 12 9 8 11 10 7 9 14 15 4 4 10 16 14 9 18 10
13 14 15 17 17 18 19 20 20 21 22 23 25 25 27 27 28 28 31 30 23 8 1 6 8 9 7 4 5 9 11 8 8 7 6 5 7 11 8 14 13 15 15 19 17 11 8
14 14 15 16 17 18 19 19 20 20 21 22 24 25 26 28 28 31 29 31 6 5 5 5 3 6 6 1 2 3 9 7 7 9 6 8 8 10 13 15 16 16 22 19 17 10 13
15 15 16 17 17 18 19 19 21 20 21 22 24 25 26 26 28 28 22 7 6 6 5 9 11 12 5 4 3 6 10 11 8 12 12 15 11 16 24 22 23 23 24 21 14 12 10
14 15 16 16 17 18 19 19 20 21 22 23 25 25 27 28 30 18 11 6 4 7 14 14 18 18 19 9 6 7 6 11 11 14 15 10 19 20 19 19 19 21 25 23 20 18 15
15 15 15 16 17 19 19 19 20 20 22 23 24 25 26 28 27 9 7 8 8 3 9 6 4 4 1 9 8 14 13 9 15 17 20 23 16 3 16 21 25 23 25 22 23 17 12
15 17 18 17 18 18 19 19 20 21 21 21 23 25 25 31 11 12 3 9 10 3 8 4 4 4 5 3 5 3 8 10 11 15 18 18 21 25 24 19 19 22 20 20 18 12 15
16 17 18 18 19 20 21 20 20 21 19 19 22 25 25 24 11 9 10 12 11 5 9 5 5 5 4 6 2 7 3 8 12 11 6 7 10 8 16 25 18 17 7 12 14 15 16
16 17 18 19 20 20 21 21 20 21 19 19 20 24 26 10 7 8 12 14 5 6 11 3 3 3 5 9 6 6 7 6 1 12 18 22 6 6 14 8 10 1 6 5 7 10 12
17 17 18 19 20 21 22 22 22 21 20 20 21 23 21 9 7 12 11 6 6 7 1 2 2 2 4 5 7 10 12 12 10 6 14 17 25 20 15 12 7 13 11 5 10 10 11
16 18 18 18 19 21 22 22 23 23 21 21 23 23 12 6 8 9 8 6 10 9 11 7 6 12 10 7 9 12 9 17 20 20 13 10 13 19 19 22 14 23 20 11 12 14 14
18 18 18 19 19 20 21 21 22 21 20 20 18 9 9 3 7 6 6 8 7 13 9 14 18 12 15 4 6 6 16 20 18 21 14 11 18 5 9 13 15 16 22 23 24 23 15
17 17 18 18 19 19 20 21 22 21 21 22 9 8 6 2 5 5 6 12 13 9 13 11 12 13 22 19 14 11 11 5 8 13 14 15 21 17 10 6 13 17 5 11 12 14 23
17 17 18 18 19 19 20 21 21 22 21 21 4 7 6 6 5 5 3 10 15 10 14 10 18 23 24 23 22 21 19 15 10 9 10 13 15 17 5 12 16 11 12 13 11 16 13
16 17 17 17 17 19 20 20 20 21 23 5 3 3 5 7 5 3 6 12 7 14 18 21 22 21 22 22 19 23 26 22 13 14 14 14 8 17 22 5 5 9 10 20 13 20 12
16 18 18 17 17 16 18 18 18 19 18 5 6 4 3 4 5 9 12 15 14 18 19 9 13 20 19 17 14 12 13 21 13 11 8 11 8 15 20 17 14 11 14 12 7 2 7
18 17 18 18 17 16 16 18 17 16 15 6 4 5 3 0 7 14 16 14 18 18 18 15 20 20 19 17 17 9 22 10 8 17 12 10 5 14 11 15 12 10 22 22 17 7 11
16 16 17 17 16 16 15 16 15 12 12 4 2 2 6 7 12 12 18 19 23 24 22 19 7 12 21 18 20 19 16 21 21 26 12 4 8 10 11 12 11 10 18 16 16 16 11
16 17 16 16 15 15 15 15 13 12 10 1 1 3 3 10 10 18 15 15 19 18 19 20 16 17 21 17 18 21 18 14 11 11 12 4 10 8 12 11 10 9 10 14 10 10 8
15 15 15 15 15 15 15 14 12 10 5 2 1 1 3 8 12 14 12 18 23 22 15 15 15 13 16 19 16 15 15 18 16 15 17 6 3 3 6 9 9 10 7 7 5 11 7
14 15 16 16 15 15 15 13 12 10 5 2 2 0 3 8 11 14 21 22 19 22 20 19 15 14 12 20 16 15 15 18 16 19 14 10 5 3 7 6 11 7 11 12 17 13 11
14 15 15 15 16 15 15 14 13 11 10 5 3 3 2 8 11 18 17 19 21 17 13 13 16 10 10 6 7 11 7 5 7 12 11 7 3 3 5 7 2 4 11 9 8 9 13
15 14 15 15 15 16 16 15 14 13 11 6 5 4 3 5 4 19 18 17 14 9 12 12 6 4 2 4 5 6 6 8 1 4 4 2 3 6 6 8 6 8 18 15 12 4 12
14 15 16 17 17 19 19 19 19 17 13 6 4 7 4 5 4 5 5 6 7 7 9 12 7 6 4 3 6 5 7 1 3 3 2 3 3 10 11 8 6 16 18 13 5 7 11
16 16 17 16 13 16 17 19 20 19 18 10 5 6 4 3 7 3 4 4 6 4 6 9 8 1 3 5 4 5 3 1 2 5 6 6 6 6 6 6 3 24 8 8 8 9 10
17 19 16 11 10 14 16 19 22 21 18 12 4 2 2 3 2 3 5 4 3 5 6 5 7 12 4 5 5 5 4 4 5 3 9 3 6 4 6 5 7 11 13 11 11 9 11
Wind_Direction
36 29 24 20 16 12 8 4 1 356 353 350 349 347 344 340 336 332 328 321 315 310 304 303 302 305 278 236 248 134 160 163 167 190 197 192 195 202 218 230 230 225 245 253 249 260 249
31 25 19 14 11 6 3 1 359 355 352 348 347 344 341 337 333 330 326 320 315 310 303 295 286 278 234 248 17 173 170 168 183 195 211 212 222 221 271 249 228 219 247 255 246 251 240
21 18 14 9 6 2 358 356 352 349 348 346 344 342 339 335 331 327 323 317 312 307 298 286 270 214 238 243 357 194 178 199 200 205 217 221 236 224 220 252 243 258 262 258 244 241 238
16 12 9 8 4 359 358 353 352 347 345 343 344 342 339 333 328 324 320 311 313 303 293 276 206 196 252 76 269 203 196 202 213 219 243 243 229 241 248 272 234 237 236 256 244 225 213
14 11 10 9 4 0 356 354 352 352 349 349 347 344 341 335 329 324 318 310 314 321 329 155 166 222 255 131 206 212 207 211 193 195 213 201 200 223 199 234 249 228 256 236 253 198 183
11 10 8 7 0 359 356 354 349 345 347 349 346 343 341 337 333 329 318 303 284 213 176 211 260 232 222 334 108 187 201 201 187 171 173 202 212 220 219 220 226 232 235 235 258 200 217
5 4 4 0 0 355 355 352 353 349 346 348 346 343 340 337 334 330 319 329 346 196 350 284 294 274 261 354 205 205 181 185 188 196 209 198 216 218 231 231 249 268 281 279 243 219 219
4 0 358 357 355 357 352 351 353 350 352 348 345 342 340 337 331 326 337 46 47 290 297 272 262 262 269 289 275 190 190 197 202 218 215 198 235 244 248 257 256 261 260 265 268 271 258
355 352 349 348 347 348 347 346 345 346 348 346 344 340 339 339 326 312 357 34 320 282 272 280 218 247 210 187 233 243 189 218 235 242 235 233 246 221 247 254 256 247 257 262 264 268 236
349 344 344 343 340 338 337 338 339 339 339 341 340 338 339 338 301 338 3 345 330 264 282 171 171 141 158 249 238 195 221 214 215 244 245 256 261 253 249 251 248 256 252 256 259 258 250
345 343 342 343 342 341 341 335 333 335 335 334 334 334 336 330 302 319 339 327 324 247 300 114 151 123 162 225 10 172 191 205 240 214 228 230 229 226 230 240 244 258 331 253 240 248 260
341 341 341 340 341 340 339 336 338 335 333 333 332 329 331 329 295 286 315 314 273 242 248 149 148 205 225 198 198 145 189 217 300 257 245 255 249 253 239 251 248 105 208 204 222 228 238
345 343 346 342 341 341 338 339 339 333 335 331 333 326 320 318 300 332 312 277 256 227 105 121 293 298 275 246 221 204 195 196 209 213 224 235 239 228 229 237 202 197 202 218 215 204 245
341 339 340 340 341 340 340 340 338 336 338 338 332 314 321 304 310 313 298 245 246 276 288 32 327 301 256 294 238 228 252 238 223 246 271 264 260 206 201 220 204 205 211 216 236 233 242
342 347 343 343 342 338 338 339 338 340 338 343 328 325 320 7 321 312 279 242 289 11 357 338 315 262 279 211 269 259 245 256 251 219 226 245 245 125 196 213 223 227 216 238 262 272 277
340 343 339 341 336 337 339 338 339 340 340 342 324 321 291 344 310 272 257 250 296 355 331 310 288 295 287 292 288 263 270 325 263 270 261 269 269 247 189 219 243 244 261 203 215 234 237
337 341 338 338 338 337 336 338 339 340 341 336 355 317 62 348 296 282 248 275 306 314 322 313 309 304 295 294 291 282 278 287 285 301 276 273 258 263 181 211 232 203 232 237 265 231 252
338 338 335 335 330 335 339 341 341 340 350 8 322 305 44 334 288 251 278 322 336 299 304 297 293 289 291 303 297 290 283 281 0 322 301 284 300 257 250 252 349 302 278 246 239 240 242
334 332 332 328 325 332 332 336 342 347 2 329 327 286 311 278 301 310 293 302 299 290 291 298 303 302 306 308 306 300 343 339 348 358 340 7 279 268 259 257 220 230 250 249 254 171 240
336 335 334 332 333 334 328 327 332 347 359 334 325 304 248 246 299 294 301 304 300 301 294 288 306 301 296 292 291 292 303 299 269 279 284 270 238 297 294 304 320 289 251 243 225 249 258
334 334 333 333 337 340 340 339 342 345 351 313 16 345 345 306 320 331 316 301 295 289 304 296 286 278 291 299 307 298 309 314 306 296 281 272 276 295 301 335 330 294 291 242 223 233 240
354 355 356 356 355 354 353 350 350 351 338 333 324 316 342 291 281 303 312 309 305 303 315 292 273 290 288 293 291 294 307 299 307 329 312 222 275 284 290 305 296 291 294 312 299 268 241
357 354 353 356 355 357 353 354 350 348 341 304 117 172 255 295 307 310 305 314 308 314 313 273 291 302 301 291 313 298 291 280 261 264 273 273 276 268 267 265 283 262 312 306 54 41 344
350 355 358 357 357 358 357 353 347 346 351 311 334 190 249 284 300 305 312 304 311 314 304 301 288 284 288 315 303 280 258 256 255 255 253 248 253 248 283 275 253 57 35 65 85 49 40
1 2 358 358 1 358 354 350 347 344 336 316 275 269 241 288 306 299 322 313 306 296 293 301 298 302 317 322 297 295 282 251 244 236 237 229 255 272 252 275 115 102 28 11 358 56 24
359 355 355 355 354 351 345 340 335 334 328 305 287 266 234 295 261 322 307 302 300 319 315 326 338 359 302 267 264 266 295 301 233 111 65 120 278 257 283 284 289 30 333 332 312 123 20
349 356 359 1 8 6 353 346 341 333 310 286 266 257 253 258 262 336 324 325 310 313 292 309 349 286 187 263 276 253 277 339 315 352 353 182 217 232 257 257 93 348 312 305 224 32 12
352 349 347 349 6 353 346 349 347 337 318 308 263 250 234 258 296 27 31 347 328 352 314 341 308 118 275 260 282 325 298 45 62 47 6 26 326 26 313 298 136 354 21 34 346 30 15
354 347 336 342 346 351 345 351 351 341 329 307 262 228 224 228 339 56 96 93 34 331 303 310 299 292 330 319 352 318 327 353 17 83 30 65 8 10 12 72 54 25 36 33 22 23 16